Weather in Yonaguni

Japan     24°27′15″N   122°59′19″E
temp.,
°C
wind,
m/s
gust,
m/s
humid.,
%
clouds,
%
prec.,
mm/h
press.,
hPa
HPBL,
m
10 may, mon
mon1000:00+27ssw338595 0.2 1010121
03:00+27s4583100 1.4 1008139
06:00+27s688697 0.4 1009353
09:00+27ssw7108947 0.4 1010605
12:00+27ssw6108789 0.0 1011757
15:00+27ssw7108855 0.0 1010714
18:00+27s6989100 0.0 1009605
21:00+27s7109288 0.0 1010500
11 may, tue
tue1100:00+27s811905 0.0 1011561
03:00+27s8129078 0.0 1009670
06:00+27s813895 0.0 1009645
09:00+27ssw9138735 0.0 1010636
12:00+27s913895 0.0 1010688
15:00+27s81288100 0.0 1009630
18:00+27s81289100 0.0 1008571
21:00+27s912903 0.0 1009670
12 may, wed
wed1200:00+27s10148916 0.0 1009679
03:00+27s10138910 0.1 1008757
06:00+27s10138398 0.2 1009557
09:00+27s91382100 0.5 1010475
12:00+28s9128254 0.2 1010421
15:00+27s9118976 0.3 1008503
18:00+27s8108796 0.0 1008425
21:00+27s8119187 0.0 1009520
13 may, thu
thu1300:00+27s81187100 0.1 1009391
03:00+27s81089100 0.6 1009513
06:00+27s81089100 1.2 1009540
09:00+27s9118544 1.9 1010481
12:00+27ssw710845 0.0 1010466
15:00+27s69860 0.0 1008481
18:00+27s58864 0.0 1009454
21:00+27s69892 0.0 1010457
14 may, fri
fri1400:00+27s69905 0.1 1011508
03:00+27s79905 0.1 1010650
06:00+27s8109090 0.1 1009642
09:00+27s9118730 0.1 1010654
12:00+27s7108633 0.0 1010665
15:00+27s6886100 0.0 1009649
18:00+27s68884 0.0 1009640
21:00+27sse79914 0.1 1010498